• In Russia
  • List of Countries
  • For 7 days
  • Water Temperature
  • Satellite Maps
  • Weather Map
  • Weather Widgets
  • user-avatar
    Login

    Hourly Weather Korçe

    Today, 26 July, Wednesday

    Time Temperature Precipitation Wind Pressure Humidity
    00:00 +16°C° 0 mm 2 mps 661 mmHg 75%
    01:00 +15°C° 0 mm 2 mps 661 mmHg 76%
    02:00 +15°C° 0 mm 2 mps 661 mmHg 77%
    03:00 +15°C° 0 mm 2 mps 661 mmHg 77%
    04:00 +14°C° 0 mm 2 mps 661 mmHg 78%
    05:00 +16°C° 0 mm 2 mps 661 mmHg 73%
    06:00 +18°C° 0 mm 2 mps 661 mmHg 68%
    07:00 +19°C° 0 mm 2 mps 662 mmHg 62%
    08:00 +21°C° 0.1 mm 2 mps 662 mmHg 58%
    09:00 +23°C° 0.1 mm 2 mps 663 mmHg 53%
    10:00 +24°C° 0.1 mm 3 mps 663 mmHg 48%
    11:00 +24°C° 0.2 mm 3 mps 663 mmHg 49%
    12:00 +24°C° 0.2 mm 3 mps 663 mmHg 49%
    13:00 +24°C° 0.2 mm 3 mps 663 mmHg 50%
    14:00 +24°C° 0.3 mm 3 mps 662 mmHg 52%
    15:00 +24°C° 0.3 mm 3 mps 662 mmHg 54%
    16:00 +22°C° 0.3 mm 3 mps 662 mmHg 56%
    17:00 +20°C° 0.1 mm 3 mps 662 mmHg 63%
    18:00 +19°C° 0.1 mm 2 mps 661 mmHg 69%
    19:00 +17°C° 0.1 mm 2 mps 661 mmHg 76%
    20:00 +16°C° 0 mm 1 mps 661 mmHg 79%
    21:00 +15°C° 0 mm 1 mps 661 mmHg 82%
    22:00 +15°C° 0 mm 1 mps 662 mmHg 85%
    23:00 +14°C° 0 mm 1 mps 661 mmHg 86%

    Tomorrow, 27 July, Thursday

    Time Temperature Precipitation Wind Pressure Humidity
    00:00 +14°C° 0 mm 1 mps 661 mmHg 86%
    01:00 +14°C° 0 mm 1 mps 661 mmHg 86%
    02:00 +13°C° 0 mm 1 mps 661 mmHg 87%
    03:00 +13°C° 0 mm 1 mps 661 mmHg 87%
    04:00 +13°C° 0 mm 1 mps 661 mmHg 88%
    05:00 +14°C° 0 mm 1 mps 661 mmHg 82%
    06:00 +15°C° 0 mm 1 mps 662 mmHg 77%
    07:00 +17°C° 0 mm 2 mps 663 mmHg 71%
    08:00 +18°C° 0.1 mm 2 mps 663 mmHg 63%
    09:00 +20°C° 0.1 mm 3 mps 664 mmHg 55%
    10:00 +21°C° 0.1 mm 3 mps 664 mmHg 47%
    11:00 +22°C° 0.2 mm 3 mps 664 mmHg 45%
    12:00 +23°C° 0.2 mm 4 mps 664 mmHg 44%
    13:00 +23°C° 0.2 mm 4 mps 664 mmHg 42%
    14:00 +23°C° 0.2 mm 4 mps 664 mmHg 46%
    15:00 +22°C° 0.2 mm 4 mps 664 mmHg 49%
    16:00 +22°C° 0.2 mm 4 mps 664 mmHg 53%
    17:00 +20°C° 0.2 mm 4 mps 664 mmHg 59%
    18:00 +18°C° 0.2 mm 3 mps 664 mmHg 65%
    19:00 +17°C° 0.2 mm 2 mps 664 mmHg 72%
    20:00 +16°C° 0 mm 2 mps 664 mmHg 75%
    21:00 +15°C° 0 mm 1 mps 664 mmHg 78%
    22:00 +14°C° 0 mm 1 mps 665 mmHg 81%
    23:00 +14°C° 0 mm 1 mps 665 mmHg 81%

    Day after tomorrow, 28 July, Friday

    Time Temperature Precipitation Wind Pressure Humidity
    00:00 +14°C° 0 mm 1 mps 665 mmHg 81%
    01:00 +13°C° 0 mm 1 mps 665 mmHg 81%
    02:00 +13°C° 0 mm 1 mps 665 mmHg 81%
    03:00 +13°C° 0 mm 1 mps 665 mmHg 80%
    04:00 +13°C° 0 mm 1 mps 665 mmHg 80%
    05:00 +15°C° 0 mm 1 mps 666 mmHg 74%
    06:00 +18°C° 0 mm 1 mps 666 mmHg 69%
    07:00 +19°C° 0 mm 1 mps 667 mmHg 63%
    08:00 +21°C° 0 mm 1 mps 668 mmHg 56%
    09:00 +23°C° 0 mm 2 mps 668 mmHg 48%
    10:00 +25°C° 0 mm 2 mps 669 mmHg 41%
    11:00 +25°C° 0 mm 2 mps 669 mmHg 38%
    12:00 +26°C° 0 mm 3 mps 669 mmHg 36%
    13:00 +27°C° 0 mm 3 mps 669 mmHg 34%
    14:00 +27°C° 0 mm 3 mps 669 mmHg 35%
    15:00 +27°C° 0 mm 3 mps 669 mmHg 36%
    16:00 +27°C° 0 mm 3 mps 669 mmHg 37%
    17:00 +25°C° 0 mm 3 mps 669 mmHg 43%
    18:00 +21°C° 0 mm 2 mps 668 mmHg 49%
    19:00 +19°C° 0 mm 2 mps 668 mmHg 55%
    20:00 +19°C° 0 mm 1 mps 668 mmHg 57%
    21:00 +19°C° 0 mm 1 mps 669 mmHg 58%
    22:00 +18°C° 0 mm 1 mps 669 mmHg 59%
    23:00 +18°C° 0 mm 1 mps 669 mmHg 59%

    29 July, Saturday

    Time Temperature Precipitation Wind Pressure Humidity
    00:00 +16°C° 0 mm 1 mps 669 mmHg 59%
    01:00 +16°C° 0 mm 1 mps 669 mmHg 59%
    02:00 +16°C° 0 mm 1 mps 669 mmHg 59%
    03:00 +16°C° 0 mm 1 mps 669 mmHg 60%
    04:00 +16°C° 0 mm 1 mps 669 mmHg 61%
    05:00 +19°C° 0 mm 1 mps 670 mmHg 57%
    06:00 +20°C° 0 mm 1 mps 670 mmHg 53%
    07:00 +22°C° 0 mm 1 mps 671 mmHg 50%
    08:00 +24°C° 0 mm 1 mps 671 mmHg 45%
    09:00 +26°C° 0 mm 1 mps 672 mmHg 41%
    10:00 +28°C° 0 mm 1 mps 673 mmHg 36%
    11:00 +29°C° 0 mm 1 mps 673 mmHg 34%
    12:00 +30°C° 0 mm 2 mps 673 mmHg 33%
    13:00 +30°C° 0 mm 2 mps 673 mmHg 32%
    14:00 +30°C° 0 mm 2 mps 672 mmHg 34%
    15:00 +29°C° 0 mm 2 mps 672 mmHg 35%
    16:00 +29°C° 0 mm 2 mps 672 mmHg 37%
    17:00 +27°C° 0 mm 2 mps 671 mmHg 42%
    18:00 +25°C° 0 mm 1 mps 671 mmHg 47%
    19:00 +23°C° 0 mm 1 mps 671 mmHg 51%
    20:00 +22°C° 0 mm 1 mps 671 mmHg 53%
    21:00 +21°C° 0 mm 1 mps 671 mmHg 55%
    22:00 +20°C° 0 mm 1 mps 671 mmHg 57%
    23:00 +20°C° 0 mm 1 mps 671 mmHg 58%

    30 July, Sunday

    Time Temperature Precipitation Wind Pressure Humidity
    00:00 +20°C° 0 mm 1 mps 670 mmHg 59%
    01:00 +19°C° 0 mm 1 mps 670 mmHg 60%
    02:00 +19°C° 0 mm 1 mps 670 mmHg 61%
    03:00 +19°C° 0 mm 1 mps 670 mmHg 62%
    04:00 +19°C° 0 mm 1 mps 670 mmHg 64%
    05:00 +20°C° 0 mm 1 mps 670 mmHg 59%
    06:00 +22°C° 0 mm 1 mps 671 mmHg 55%
    07:00 +24°C° 0 mm 1 mps 671 mmHg 51%
    08:00 +25°C° 0 mm 1 mps 672 mmHg 45%
    09:00 +27°C° 0 mm 1 mps 672 mmHg 39%
    10:00 +29°C° 0 mm 1 mps 672 mmHg 34%
    11:00 +30°C° 0 mm 2 mps 672 mmHg 33%
    12:00 +30°C° 0 mm 2 mps 672 mmHg 32%
    13:00 +31°C° 0 mm 2 mps 672 mmHg 31%
    14:00 +30°C° 0 mm 2 mps 672 mmHg 32%
    15:00 +30°C° 0 mm 2 mps 671 mmHg 34%
    16:00 +29°C° 0 mm 3 mps 671 mmHg 36%
    17:00 +27°C° 0 mm 2 mps 671 mmHg 41%
    18:00 +25°C° 0 mm 2 mps 670 mmHg 46%
    19:00 +23°C° 0 mm 1 mps 670 mmHg 51%
    20:00 +22°C° 0 mm 1 mps 669 mmHg 53%
    21:00 +21°C° 0 mm 1 mps 669 mmHg 55%
    22:00 +20°C° 0 mm 1 mps 669 mmHg 57%
    23:00 +20°C° 0 mm 1 mps 669 mmHg 58%

    31 July, Monday

    Time Temperature Precipitation Wind Pressure Humidity
    00:00 +20°C° 0 mm 1 mps 669 mmHg 59%
    01:00 +20°C° 0 mm 1 mps 669 mmHg 59%
    02:00 +19°C° 0 mm 1 mps 669 mmHg 60%
    03:00 +19°C° 0 mm 1 mps 669 mmHg 60%
    04:00 +19°C° 0 mm 1 mps 669 mmHg 61%
    05:00 +21°C° 0 mm 1 mps 669 mmHg 57%
    06:00 +22°C° 0 mm 1 mps 670 mmHg 54%
    07:00 +24°C° 0 mm 1 mps 670 mmHg 50%
    08:00 +26°C° 0 mm 2 mps 670 mmHg 46%
    09:00 +28°C° 0 mm 2 mps 671 mmHg 41%
    10:00 +29°C° 0 mm 2 mps 671 mmHg 37%
    11:00 +30°C° 0 mm 2 mps 671 mmHg 35%
    12:00 +31°C° 0 mm 2 mps 671 mmHg 33%
    13:00 +33°C° 0 mm 3 mps 671 mmHg 32%
    14:00 +31°C° 0 mm 3 mps 671 mmHg 32%
    15:00 +31°C° 0 mm 3 mps 671 mmHg 33%
    16:00 +31°C° 0 mm 2 mps 670 mmHg 33%
    17:00 +28°C° 0 mm 2 mps 670 mmHg 40%
    18:00 +26°C° 0 mm 2 mps 670 mmHg 47%
    19:00 +24°C° 0 mm 1 mps 669 mmHg 54%
    20:00 +23°C° 0 mm 1 mps 669 mmHg 57%
    21:00 +22°C° 0 mm 1 mps 669 mmHg 59%
    22:00 +20°C° 0 mm 2 mps 669 mmHg 62%
    23:00 +19°C° 0 mm 2 mps 669 mmHg 62%
    Show more